{"data":{"norad_id":66253,"epoch":"2026-05-24T19:30:16.752960Z","epoch_age_seconds":101534,"freshness":"FRESH","line1":"1 66253U 25245V   26144.81269390  .00031132  00000+0  10100-2 0  9998","line2":"2 66253  53.1595 290.1421 0000830  40.1314 319.9749 15.31725412 32700","mean_motion":15.31725412,"eccentricity":8.3e-5,"inclination_deg":53.1595,"raan_deg":290.1421,"arg_perigee_deg":40.1314,"mean_anomaly_deg":319.9749,"bstar":0.00101,"rev_number":3270,"period_min":94.011628240846,"perigee_km":470.09579391999,"apogee_km":471.23269492657,"semimajor_km":6848.8012444233,"source":"CELESTRAK","updated_at":"2026-05-25T13:38:21.137604Z"}}